{"data":{"norad_id":60498,"epoch":"2026-09-22T17:35:16.798848Z","epoch_age_seconds":93356,"freshness":"FRESH","line1":"1 60498U 24149AG  26265.73283332  .00005831  00000+0  20370-3 0  9990","line2":"2 60498  97.3864 346.7118 0001656 295.8999  64.2071 15.29955593117052","mean_motion":15.29955593,"eccentricity":0.0001656,"inclination_deg":97.3864,"raan_deg":346.7118,"arg_perigee_deg":295.8999,"mean_anomaly_deg":64.2071,"bstar":0.0002037,"rev_number":11705,"period_min":94.120378825923,"perigee_km":474.80988584601,"apogee_km":477.07995777851,"semimajor_km":6854.0819218123,"source":"CELESTRAK","updated_at":"2026-09-23T09:00:20.658344Z"}}